User: anonymous   Login
Location: Fort Wayne
(41.1310°N, 85.1290°W)
Time: 17:42:09
(UTC-05:00)
Language:

SR - Orbit

View from above orbital plane
View from above orbital plane
View from above satellite
View from above satellite

Ground track
Ground track

The orbit data is extracted from the following two-line orbital elements,

1 00046U 60007B   17323.81388425  .00000098  00000-0  42896-4 0  9998
2 00046  66.6916  67.7842 0203941 113.1264 249.1479 14.49092869  2805
Epoch (UTC): 19 November 2017 19:31:59
Eccentricity: 0.0203941
inclination: 66.6916°
perigee height: 583 km
apogee height: 873 km
right ascension of ascending node: 67.7842°
argument of perigee: 113.1264°
revolutions per day: 14.49092869
mean anomaly at epoch: 249.1479°
orbit number at epoch: 280

The dashed part of the orbit path shows where the satellite is in the earth's shadow,  

DLR